Time,TemperatureF,DewpointF,PressureIn,WindDirection,WindDirectionDegrees,WindSpeedMPH,WindSpeedGustMPH,Humidity,HourlyPrecipIn,Conditions,Clouds,dailyrainin,SoftwareType,DateUTC
2013-09-07 00:01:00,81.8,67.1,29.91,SW,231,4.0,6.0,61,0.00,,---,0.00,VWS V14.01,2013-09-07 05:01:00,
2013-09-07 00:06:00,81.7,66.9,29.91,SSE,151,2.0,8.0,61,0.00,,---,0.00,VWS V14.01,2013-09-07 05:06:00,
2013-09-07 00:11:00,81.5,67.2,29.91,South,179,3.0,8.0,62,0.00,,---,0.00,VWS V14.01,2013-09-07 05:11:00,
2013-09-07 00:16:00,81.4,67.1,29.91,SW,236,2.0,6.0,62,0.00,,---,0.00,VWS V14.01,2013-09-07 05:16:00,
2013-09-07 00:21:00,81.2,66.9,29.92,SW,219,5.0,9.0,62,0.00,,---,0.00,VWS V14.01,2013-09-07 05:21:00,
2013-09-07 00:26:00,81.1,66.9,29.92,South,179,5.0,9.0,62,0.00,,---,0.00,VWS V14.01,2013-09-07 05:26:00,
2013-09-07 00:31:00,80.9,67.1,29.91,SSE,153,2.0,3.0,63,0.00,,---,0.00,VWS V14.01,2013-09-07 05:31:00,
2013-09-07 00:36:00,80.8,67.0,29.91,SW,215,1.0,5.0,63,0.00,,---,0.00,VWS V14.01,2013-09-07 05:36:00,
2013-09-07 00:41:00,80.6,66.8,29.91,SSW,212,5.0,6.0,63,0.00,,---,0.00,VWS V14.01,2013-09-07 05:41:00,
2013-09-07 00:46:00,80.5,67.2,29.91,SSE,160,7.0,8.0,64,0.00,,---,0.00,VWS V14.01,2013-09-07 05:46:00,
2013-09-07 00:51:00,80.5,66.8,29.91,SSW,204,3.0,9.0,63,0.00,,---,0.00,VWS V14.01,2013-09-07 05:51:00,
2013-09-07 00:56:00,80.5,67.2,29.91,WSW,239,4.0,10.0,64,0.00,,---,0.00,VWS V14.01,2013-09-07 05:56:00,
2013-09-07 01:01:00,80.4,66.7,29.91,SSW,212,4.0,5.0,63,0.00,,---,0.00,VWS V14.01,2013-09-07 06:01:00,
2013-09-07 01:06:00,80.3,67.0,29.91,SW,233,2.0,8.0,64,0.00,,---,0.00,VWS V14.01,2013-09-07 06:06:00,
2013-09-07 01:11:00,80.2,66.9,29.91,SSE,158,2.0,8.0,64,0.00,,---,0.00,VWS V14.01,2013-09-07 06:11:00,
2013-09-07 01:16:00,80.1,66.8,29.92,SSE,159,3.0,6.0,64,0.00,,---,0.00,VWS V14.01,2013-09-07 06:16:00,
2013-09-07 01:21:00,80.1,66.8,29.92,South,170,4.0,8.0,64,0.00,,---,0.00,VWS V14.01,2013-09-07 06:21:00,
2013-09-07 01:26:00,80.0,66.7,29.92,SSW,193,2.0,8.0,64,0.00,,---,0.00,VWS V14.01,2013-09-07 06:26:00,
2013-09-07 01:31:00,80.0,66.7,29.92,WSW,250,2.0,4.0,64,0.00,,---,0.00,VWS V14.01,2013-09-07 06:31:00,
2013-09-07 01:36:00,79.9,66.7,29.92,SE,142,3.0,7.0,64,0.00,,---,0.00,VWS V14.01,2013-09-07 06:36:00,
2013-09-07 01:41:00,80.0,66.7,29.92,SW,232,6.0,9.0,64,0.00,,---,0.00,VWS V14.01,2013-09-07 06:41:00,
2013-09-07 01:46:00,80.0,66.7,29.92,SW,232,5.0,5.0,64,0.00,,---,0.00,VWS V14.01,2013-09-07 06:46:00,
2013-09-07 01:51:00,80.0,66.7,29.92,SW,231,4.0,7.0,64,0.00,,---,0.00,VWS V14.01,2013-09-07 06:51:00,
2013-09-07 01:56:00,80.0,66.7,29.92,SW,232,0.0,9.0,64,0.00,,---,0.00,VWS V14.01,2013-09-07 06:56:00,
2013-09-07 02:01:00,79.8,66.6,29.92,SE,145,6.0,6.0,64,0.00,,---,0.00,VWS V14.01,2013-09-07 07:01:00,
2013-09-07 02:06:00,79.8,66.6,29.92,WSW,248,7.0,7.0,64,0.00,,---,0.00,VWS V14.01,2013-09-07 07:06:00,
2013-09-07 02:11:00,79.7,66.5,29.92,South,186,2.0,7.0,64,0.00,,---,0.00,VWS V14.01,2013-09-07 07:11:00,
2013-09-07 02:16:00,79.7,66.5,29.92,South,188,3.0,6.0,64,0.00,,---,0.00,VWS V14.01,2013-09-07 07:16:00,
2013-09-07 02:21:00,79.6,66.8,29.92,SSW,207,8.0,10.0,65,0.00,,---,0.00,VWS V14.01,2013-09-07 07:21:00,
2013-09-07 02:26:00,79.6,66.8,29.91,SSW,203,4.0,10.0,65,0.00,,---,0.00,VWS V14.01,2013-09-07 07:26:00,
2013-09-07 02:31:00,79.5,66.7,29.91,SW,232,4.0,4.0,65,0.00,,---,0.00,VWS V14.01,2013-09-07 07:31:00,
2013-09-07 02:36:00,79.4,66.6,29.92,SE,143,2.0,7.0,65,0.00,,---,0.00,VWS V14.01,2013-09-07 07:36:00,
2013-09-07 02:41:00,79.4,66.6,29.92,SE,143,4.0,9.0,65,0.00,,---,0.00,VWS V14.01,2013-09-07 07:41:00,
2013-09-07 02:46:00,79.4,66.6,29.92,SSW,194,5.0,5.0,65,0.00,,---,0.00,VWS V14.01,2013-09-07 07:46:00,
2013-09-07 02:51:00,79.3,67.0,29.91,SW,235,10.0,10.0,66,0.00,,---,0.00,VWS V14.01,2013-09-07 07:51:00,
2013-09-07 02:56:00,79.2,66.9,29.92,SSE,155,2.0,10.0,66,0.00,,---,0.00,VWS V14.01,2013-09-07 07:56:00,
2013-09-07 03:01:00,79.2,66.9,29.92,WSW,252,6.0,6.0,66,0.00,,---,0.00,VWS V14.01,2013-09-07 08:01:00,
2013-09-07 03:06:00,79.1,66.8,29.92,SW,215,4.0,8.0,66,0.00,,---,0.00,VWS V14.01,2013-09-07 08:06:00,
2013-09-07 03:11:00,79.0,66.7,29.92,WSW,241,3.0,9.0,66,0.00,,---,0.00,VWS V14.01,2013-09-07 08:11:00,
2013-09-07 03:16:00,78.9,66.6,29.92,SSW,212,5.0,5.0,66,0.00,,---,0.00,VWS V14.01,2013-09-07 08:16:00,
2013-09-07 03:21:00,78.7,66.8,29.91,WSW,256,5.0,10.0,67,0.00,,---,0.00,VWS V14.01,2013-09-07 08:21:00,
2013-09-07 03:26:00,78.6,66.7,29.91,SSW,196,4.0,10.0,67,0.00,,---,0.00,VWS V14.01,2013-09-07 08:26:00,
2013-09-07 03:31:00,78.5,66.6,29.91,South,191,2.0,7.0,67,0.00,,---,0.00,VWS V14.01,2013-09-07 08:31:00,
2013-09-07 03:36:00,78.4,66.6,29.91,South,174,4.0,7.0,67,0.00,,---,0.00,VWS V14.01,2013-09-07 08:36:00,
2013-09-07 03:41:00,78.3,66.4,29.91,SE,143,1.0,7.0,67,0.00,,---,0.00,VWS V14.01,2013-09-07 08:41:00,
2013-09-07 03:46:00,78.3,66.4,29.91,SW,226,5.0,7.0,67,0.00,,---,0.00,VWS V14.01,2013-09-07 08:46:00,
2013-09-07 03:51:00,78.2,66.8,29.91,South,184,5.0,7.0,68,0.00,,---,0.00,VWS V14.01,2013-09-07 08:51:00,
2013-09-07 03:56:00,78.2,66.8,29.91,SE,146,4.0,9.0,68,0.00,,---,0.00,VWS V14.01,2013-09-07 08:56:00,
2013-09-07 04:01:00,78.2,66.8,29.91,WSW,245,3.0,4.0,68,0.00,,---,0.00,VWS V14.01,2013-09-07 09:01:00,
2013-09-07 04:05:00,78.3,66.4,29.91,South,172,3.0,8.0,67,0.00,,---,0.00,VWS V14.01,2013-09-07 09:05:00,
2013-09-07 04:10:00,78.2,66.8,29.91,SW,217,5.0,8.0,68,0.00,,---,0.00,VWS V14.01,2013-09-07 09:10:00,
2013-09-07 04:15:00,78.2,66.8,29.91,SSE,153,3.0,5.0,68,0.00,,---,0.00,VWS V14.01,2013-09-07 09:15:00,
2013-09-07 04:20:00,78.1,66.7,29.91,SE,128,0.0,8.0,68,0.00,,---,0.00,VWS V14.01,2013-09-07 09:20:00,
2013-09-07 04:25:00,78.0,66.6,29.91,SW,231,0.0,8.0,68,0.00,,---,0.00,VWS V14.01,2013-09-07 09:25:00,
2013-09-07 04:30:00,77.8,66.4,29.91,SW,226,0.0,0.0,68,0.00,,---,0.00,VWS V14.01,2013-09-07 09:30:00,
2013-09-07 04:35:00,77.7,66.3,29.91,SW,217,3.0,6.0,68,0.00,,---,0.00,VWS V14.01,2013-09-07 09:35:00,
2013-09-07 04:40:00,77.6,66.6,29.91,SW,214,0.0,6.0,69,0.00,,---,0.00,VWS V14.01,2013-09-07 09:40:00,
2013-09-07 04:45:00,77.4,66.4,29.91,South,181,2.0,2.0,69,0.00,,---,0.00,VWS V14.01,2013-09-07 09:45:00,
2013-09-07 04:50:00,77.3,66.3,29.91,SSE,149,1.0,5.0,69,0.00,,---,0.00,VWS V14.01,2013-09-07 09:50:00,
2013-09-07 04:55:00,77.1,66.6,29.92,SSE,152,0.0,5.0,70,0.00,,---,0.00,VWS V14.01,2013-09-07 09:55:00,
2013-09-07 05:00:00,76.9,66.4,29.92,SW,218,1.0,1.0,70,0.00,,---,0.00,VWS V14.01,2013-09-07 10:00:00,
2013-09-07 05:05:00,76.8,66.3,29.92,SE,139,0.0,3.0,70,0.00,,---,0.00,VWS V14.01,2013-09-07 10:05:00,
2013-09-07 05:10:00,76.7,66.2,29.92,SSE,167,2.0,5.0,70,0.00,,---,0.00,VWS V14.01,2013-09-07 10:10:00,
2013-09-07 05:15:00,76.7,66.2,29.92,SSE,167,2.0,5.0,70,0.00,,---,0.00,VWS V14.01,2013-09-07 10:15:00,
2013-09-07 05:20:00,76.7,66.2,29.92,SSE,167,2.0,2.0,70,0.00,,---,0.00,VWS V14.01,2013-09-07 10:20:00,
2013-09-07 05:25:00,76.7,66.2,29.92,SSE,167,2.0,2.0,70,0.00,,---,0.00,VWS V14.01,2013-09-07 10:25:00,
2013-09-07 05:30:00,76.7,66.2,29.92,SSE,167,2.0,2.0,70,0.00,,---,0.00,VWS V14.01,2013-09-07 10:30:00,
2013-09-07 05:35:00,76.7,66.2,29.92,SSE,167,2.0,2.0,70,0.00,,---,0.00,VWS V14.01,2013-09-07 10:35:00,
2013-09-07 05:40:00,76.7,66.2,29.92,SSE,167,2.0,2.0,70,0.00,,---,0.00,VWS V14.01,2013-09-07 10:40:00,
2013-09-07 05:45:00,76.7,66.2,29.92,SSE,167,2.0,2.0,70,0.00,,---,0.00,VWS V14.01,2013-09-07 10:45:00,
2013-09-07 05:50:00,76.7,66.2,29.92,SSE,167,2.0,2.0,70,0.00,,---,0.00,VWS V14.01,2013-09-07 10:50:00,
2013-09-07 05:55:00,76.7,66.2,29.92,SSE,167,2.0,2.0,70,0.00,,---,0.00,VWS V14.01,2013-09-07 10:55:00,
2013-09-07 06:00:00,76.7,66.2,29.92,SSE,167,2.0,2.0,70,0.00,,---,0.00,VWS V14.01,2013-09-07 11:00:00,
2013-09-07 06:05:00,76.7,66.2,29.92,SSE,167,2.0,2.0,70,0.00,,---,0.00,VWS V14.01,2013-09-07 11:05:00,
2013-09-07 06:10:00,76.7,66.2,29.92,SSE,167,2.0,2.0,70,0.00,,---,0.00,VWS V14.01,2013-09-07 11:10:00,
2013-09-07 06:15:00,76.7,66.2,29.92,SSE,167,2.0,2.0,70,0.00,,---,0.00,VWS V14.01,2013-09-07 11:15:00,
2013-09-07 06:20:00,76.7,66.2,29.92,SSE,167,2.0,2.0,70,0.00,,---,0.00,VWS V14.01,2013-09-07 11:20:00,
2013-09-07 06:25:00,76.7,66.2,29.92,SSE,167,2.0,2.0,70,0.00,,---,0.00,VWS V14.01,2013-09-07 11:25:00,
2013-09-07 06:30:00,76.7,66.2,29.92,SSE,167,2.0,2.0,70,0.00,,---,0.00,VWS V14.01,2013-09-07 11:30:00,
2013-09-07 06:35:00,76.7,66.2,29.92,SSE,167,2.0,2.0,70,0.00,,---,0.00,VWS V14.01,2013-09-07 11:35:00,
2013-09-07 06:40:00,76.7,66.2,29.92,SSE,167,2.0,2.0,70,0.00,,---,0.00,VWS V14.01,2013-09-07 11:40:00,
2013-09-07 06:45:00,76.7,66.2,29.92,SSE,167,2.0,2.0,70,0.00,,---,0.00,VWS V14.01,2013-09-07 11:45:00,
2013-09-07 06:50:00,76.7,66.2,29.92,SSE,167,2.0,2.0,70,0.00,,---,0.00,VWS V14.01,2013-09-07 11:50:00,
2013-09-07 06:55:00,76.7,66.2,29.92,SSE,167,2.0,2.0,70,0.00,,---,0.00,VWS V14.01,2013-09-07 11:55:00,
2013-09-07 07:00:00,76.7,66.2,29.92,SSE,167,2.0,2.0,70,0.00,,---,0.00,VWS V14.01,2013-09-07 12:00:00,
2013-09-07 07:05:00,76.7,66.2,29.92,SSE,167,2.0,2.0,70,0.00,,---,0.00,VWS V14.01,2013-09-07 12:05:00,
2013-09-07 07:10:00,76.7,66.2,29.92,SSE,167,2.0,2.0,70,0.00,,---,0.00,VWS V14.01,2013-09-07 12:10:00,
2013-09-07 07:15:00,76.7,66.2,29.92,SSE,167,2.0,2.0,70,0.00,,---,0.00,VWS V14.01,2013-09-07 12:15:00,
2013-09-07 07:20:00,76.7,66.2,29.93,SSE,167,2.0,2.0,70,0.00,,---,0.00,VWS V14.01,2013-09-07 12:20:00,
2013-09-07 07:25:00,76.7,66.2,29.93,SSE,167,2.0,2.0,70,0.00,,---,0.00,VWS V14.01,2013-09-07 12:25:00,
2013-09-07 07:30:00,76.7,66.2,29.92,SSE,167,2.0,2.0,70,0.00,,---,0.00,VWS V14.01,2013-09-07 12:30:00,
2013-09-07 07:35:00,76.7,66.2,29.92,SSE,167,2.0,2.0,70,0.00,,---,0.00,VWS V14.01,2013-09-07 12:35:00,
2013-09-07 07:40:00,76.7,66.2,29.93,SSE,167,2.0,2.0,70,0.00,,---,0.00,VWS V14.01,2013-09-07 12:40:00,
2013-09-07 07:45:00,75.3,66.8,29.93,SSE,166,1.0,2.0,75,0.00,,---,0.00,VWS V14.01,2013-09-07 12:45:00,
2013-09-07 07:50:00,75.3,66.8,29.93,SW,226,1.0,6.0,75,0.00,,---,0.00,VWS V14.01,2013-09-07 12:50:00,
2013-09-07 07:55:00,75.4,66.9,29.92,SSE,152,1.0,6.0,75,0.00,,---,0.00,VWS V14.01,2013-09-07 12:55:00,
2013-09-07 08:00:00,75.6,66.7,29.92,SE,128,0.0,6.0,74,0.00,,---,0.00,VWS V14.01,2013-09-07 13:00:00,
2013-09-07 08:05:00,76.0,67.1,29.92,SSW,203,3.0,6.0,74,0.00,,---,0.00,VWS V14.01,2013-09-07 13:05:00,
2013-09-07 08:10:00,76.2,66.9,29.92,SW,226,2.0,6.0,73,0.00,,---,0.00,VWS V14.01,2013-09-07 13:10:00,
2013-09-07 08:15:00,76.4,67.1,29.92,SW,229,0.0,6.0,73,0.00,,---,0.00,VWS V14.01,2013-09-07 13:15:00,
2013-09-07 08:20:00,76.6,66.9,29.92,SW,226,0.0,1.0,72,0.00,,---,0.00,VWS V14.01,2013-09-07 13:20:00,
2013-09-07 08:25:00,76.8,67.1,29.93,South,190,3.0,7.0,72,0.00,,---,0.00,VWS V14.01,2013-09-07 13:25:00,
2013-09-07 08:30:00,77.0,67.3,29.93,SSE,158,2.0,7.0,72,0.00,,---,0.00,VWS V14.01,2013-09-07 13:30:00,
2013-09-07 08:35:00,77.4,67.3,29.93,South,181,2.0,8.0,71,0.00,,---,0.00,VWS V14.01,2013-09-07 13:35:00,
2013-09-07 08:40:00,77.8,67.7,29.93,SW,225,1.0,8.0,71,0.00,,---,0.00,VWS V14.01,2013-09-07 13:40:00,
2013-09-07 08:45:00,78.1,67.5,29.92,South,187,2.0,8.0,70,0.00,,---,0.00,VWS V14.01,2013-09-07 13:45:00,
2013-09-07 08:50:00,78.4,67.8,29.92,SW,226,5.0,6.0,70,0.00,,---,0.00,VWS V14.01,2013-09-07 13:50:00,
2013-09-07 08:55:00,78.6,67.6,29.92,SW,226,4.0,6.0,69,0.00,,---,0.00,VWS V14.01,2013-09-07 13:55:00,
2013-09-07 09:00:00,79.1,68.1,29.92,WSW,250,2.0,6.0,69,0.00,,---,0.00,VWS V14.01,2013-09-07 14:00:00,
2013-09-07 09:05:00,79.5,68.0,29.92,SW,219,2.0,8.0,68,0.00,,---,0.00,VWS V14.01,2013-09-07 14:05:00,
2013-09-07 09:10:00,80.1,68.2,29.92,SW,226,0.0,8.0,67,0.00,,---,0.00,VWS V14.01,2013-09-07 14:10:00,
2013-09-07 09:15:00,80.5,68.1,29.92,WSW,242,4.0,8.0,66,0.00,,---,0.00,VWS V14.01,2013-09-07 14:15:00,
2013-09-07 09:20:00,81.0,68.1,29.92,West,266,3.0,8.0,65,0.00,,---,0.00,VWS V14.01,2013-09-07 14:20:00,
2013-09-07 09:25:00,81.3,68.0,29.92,SW,228,6.0,10.0,64,0.00,,---,0.00,VWS V14.01,2013-09-07 14:25:00,
2013-09-07 09:30:00,81.8,68.4,29.92,SW,233,4.0,10.0,64,0.00,,---,0.00,VWS V14.01,2013-09-07 14:30:00,
2013-09-07 09:35:00,82.2,68.4,29.93,SW,219,5.0,7.0,63,0.00,,---,0.00,VWS V14.01,2013-09-07 14:35:00,
2013-09-07 09:40:00,82.7,68.4,29.93,SSW,212,3.0,7.0,62,0.00,,---,0.00,VWS V14.01,2013-09-07 14:40:00,
2013-09-07 09:45:00,83.3,68.5,29.93,South,191,0.0,7.0,61,0.00,,---,0.00,VWS V14.01,2013-09-07 14:45:00,
2013-09-07 09:50:00,83.7,68.3,29.93,SE,131,3.0,6.0,60,0.00,,---,0.00,VWS V14.01,2013-09-07 14:50:00,
2013-09-07 09:55:00,84.2,68.3,29.93,ESE,103,2.0,6.0,59,0.00,,---,0.00,VWS V14.01,2013-09-07 14:55:00,
2013-09-07 10:00:00,84.8,68.9,29.93,South,191,6.0,7.0,59,0.00,,---,0.00,VWS V14.01,2013-09-07 15:00:00,
2013-09-07 10:05:00,85.4,69.0,29.93,SW,226,4.0,6.0,58,0.00,,---,0.00,VWS V14.01,2013-09-07 15:05:00,
2013-09-07 10:10:00,85.7,68.2,29.93,WSW,252,5.0,9.0,56,0.00,,---,0.00,VWS V14.01,2013-09-07 15:10:00,
2013-09-07 10:15:00,85.9,68.4,29.93,SW,230,4.0,9.0,56,0.00,,---,0.00,VWS V14.01,2013-09-07 15:15:00,
2013-09-07 10:20:00,86.0,68.0,29.93,South,181,4.0,9.0,55,0.00,,---,0.00,VWS V14.01,2013-09-07 15:20:00,
2013-09-07 10:25:00,86.4,68.3,29.93,SW,224,2.0,9.0,55,0.00,,---,0.00,VWS V14.01,2013-09-07 15:25:00,
2013-09-07 10:30:00,86.8,68.2,29.92,SW,226,7.0,10.0,54,0.00,,---,0.00,VWS V14.01,2013-09-07 15:30:00,
2013-09-07 10:35:00,86.9,68.8,29.93,SW,215,3.0,6.0,55,0.00,,---,0.00,VWS V14.01,2013-09-07 15:35:00,
2013-09-07 10:40:00,87.4,68.2,29.93,SW,229,6.0,8.0,53,0.00,,---,0.00,VWS V14.01,2013-09-07 15:40:00,
2013-09-07 10:45:00,87.7,69.0,29.93,NW,312,3.0,8.0,54,0.00,,---,0.00,VWS V14.01,2013-09-07 15:45:00,
2013-09-07 10:49:00,88.0,68.7,29.93,SW,235,1.0,6.0,53,0.00,,---,0.00,VWS V14.01,2013-09-07 15:49:00,
2013-09-07 10:54:00,88.3,68.5,29.93,South,188,2.0,9.0,52,0.00,,---,0.00,VWS V14.01,2013-09-07 15:54:00,
2013-09-07 10:59:00,89.0,69.1,29.93,SW,222,3.0,9.0,52,0.00,,---,0.00,VWS V14.01,2013-09-07 15:59:00,
2013-09-07 11:04:00,89.5,69.0,29.92,SW,225,2.0,7.0,51,0.00,,---,0.00,VWS V14.01,2013-09-07 16:04:00,
2013-09-07 11:09:00,90.2,69.1,29.92,SW,236,2.0,7.0,50,0.00,,---,0.00,VWS V14.01,2013-09-07 16:09:00,
2013-09-07 11:14:00,90.7,68.9,29.92,WSW,240,3.0,8.0,49,0.00,,---,0.00,VWS V14.01,2013-09-07 16:14:00,
2013-09-07 11:19:00,91.1,69.9,29.92,SW,226,3.0,4.0,50,0.00,,---,0.00,VWS V14.01,2013-09-07 16:19:00,
2013-09-07 11:24:00,91.6,67.9,29.92,South,191,3.0,9.0,46,0.00,,---,0.00,VWS V14.01,2013-09-07 16:24:00,
2013-09-07 11:29:00,91.7,68.6,29.92,SW,230,4.0,9.0,47,0.00,,---,0.00,VWS V14.01,2013-09-07 16:29:00,
2013-09-07 11:34:00,92.2,69.1,29.92,South,181,5.0,9.0,47,0.00,,---,0.00,VWS V14.01,2013-09-07 16:34:00,
2013-09-07 11:39:00,92.7,68.9,29.92,SW,219,1.0,9.0,46,0.00,,---,0.00,VWS V14.01,2013-09-07 16:39:00,
2013-09-07 11:44:00,93.5,69.0,29.92,WNW,295,4.0,9.0,45,0.00,,---,0.00,VWS V14.01,2013-09-07 16:44:00,
2013-09-07 11:49:00,93.6,69.1,29.92,South,177,2.0,6.0,45,0.00,,---,0.00,VWS V14.01,2013-09-07 16:49:00,
2013-09-07 11:54:00,94.2,69.6,29.92,SSW,207,2.0,6.0,45,0.00,,---,0.00,VWS V14.01,2013-09-07 16:54:00,
2013-09-07 11:59:00,94.7,68.7,29.91,ESE,118,4.0,9.0,43,0.00,,---,0.00,VWS V14.01,2013-09-07 16:59:00,
2013-09-07 12:04:00,94.9,68.2,29.91,SSE,164,3.0,8.0,42,0.00,,---,0.00,VWS V14.01,2013-09-07 17:04:00,
2013-09-07 12:09:00,95.6,69.6,29.91,South,178,2.0,8.0,43,0.00,,---,0.00,VWS V14.01,2013-09-07 17:09:00,
2013-09-07 12:14:00,96.2,68.0,29.91,SSW,194,2.0,8.0,40,0.00,,---,0.00,VWS V14.01,2013-09-07 17:14:00,
2013-09-07 12:19:00,96.2,68.7,29.91,SE,139,1.0,7.0,41,0.00,,---,0.00,VWS V14.01,2013-09-07 17:19:00,
2013-09-07 12:24:00,96.3,68.1,29.91,WSW,238,2.0,7.0,40,0.00,,---,0.00,VWS V14.01,2013-09-07 17:24:00,
2013-09-07 12:29:00,96.8,68.5,29.91,SW,219,1.0,7.0,40,0.00,,---,0.00,VWS V14.01,2013-09-07 17:29:00,
2013-09-07 12:34:00,97.2,68.1,29.91,South,184,2.0,6.0,39,0.00,,---,0.00,VWS V14.01,2013-09-07 17:34:00,
2013-09-07 12:39:00,97.3,69.0,29.91,SW,224,1.0,6.0,40,0.00,,---,0.00,VWS V14.01,2013-09-07 17:39:00,
2013-09-07 12:44:00,98.1,68.2,29.90,SE,142,3.0,6.0,38,0.00,,---,0.00,VWS V14.01,2013-09-07 17:44:00,
2013-09-07 12:49:00,98.5,68.5,29.90,South,169,6.0,7.0,38,0.00,,---,0.00,VWS V14.01,2013-09-07 17:49:00,
2013-09-07 12:54:00,98.8,68.8,29.90,SSE,148,3.0,8.0,38,0.00,,---,0.00,VWS V14.01,2013-09-07 17:54:00,
2013-09-07 12:59:00,99.0,69.0,29.89,West,260,3.0,8.0,38,0.00,,---,0.00,VWS V14.01,2013-09-07 17:59:00,
2013-09-07 13:04:00,99.2,67.6,29.89,SSE,157,4.0,7.0,36,0.00,,---,0.00,VWS V14.01,2013-09-07 18:04:00,
2013-09-07 13:09:00,99.2,67.6,29.89,South,187,2.0,7.0,36,0.00,,---,0.00,VWS V14.01,2013-09-07 18:09:00,
2013-09-07 13:14:00,99.7,68.0,29.89,SE,146,6.0,8.0,36,0.00,,---,0.00,VWS V14.01,2013-09-07 18:14:00,
2013-09-07 13:19:00,99.8,67.3,29.89,SSW,207,4.0,8.0,35,0.00,,---,0.00,VWS V14.01,2013-09-07 18:19:00,
2013-09-07 13:24:00,100.3,67.7,29.89,SSW,195,3.0,8.0,35,0.00,,---,0.00,VWS V14.01,2013-09-07 18:24:00,
2013-09-07 13:29:00,100.4,67.8,29.89,SSE,152,4.0,8.0,35,0.00,,---,0.00,VWS V14.01,2013-09-07 18:29:00,
2013-09-07 13:34:00,100.9,67.4,29.88,SSE,155,2.0,6.0,34,0.00,,---,0.00,VWS V14.01,2013-09-07 18:34:00,
2013-09-07 13:39:00,101.2,67.7,29.88,ESE,123,2.0,6.0,34,0.00,,---,0.00,VWS V14.01,2013-09-07 18:39:00,
2013-09-07 13:44:00,101.4,67.8,29.88,WSW,244,5.0,6.0,34,0.00,,---,0.00,VWS V14.01,2013-09-07 18:44:00,
2013-09-07 13:49:00,101.7,68.1,29.88,SE,128,3.0,6.0,34,0.00,,---,0.00,VWS V14.01,2013-09-07 18:49:00,
2013-09-07 13:54:00,101.7,68.1,29.88,WNW,288,1.0,12.0,34,0.00,,---,0.00,VWS V14.01,2013-09-07 18:54:00,
2013-09-07 13:59:00,102.0,67.5,29.87,SSE,156,3.0,12.0,33,0.00,,---,0.00,VWS V14.01,2013-09-07 18:59:00,
2013-09-07 14:04:00,101.9,67.4,29.87,SSW,198,1.0,7.0,33,0.00,,---,0.00,VWS V14.01,2013-09-07 19:04:00,
2013-09-07 14:09:00,102.7,67.2,29.87,SSW,203,4.0,7.0,32,0.00,,---,0.00,VWS V14.01,2013-09-07 19:09:00,
2013-09-07 14:14:00,103.1,66.6,29.87,SE,142,6.0,7.0,31,0.00,,---,0.00,VWS V14.01,2013-09-07 19:14:00,
2013-09-07 14:19:00,103.2,66.7,29.87,WSW,240,3.0,6.0,31,0.00,,---,0.00,VWS V14.01,2013-09-07 19:19:00,
2013-09-07 14:24:00,103.4,66.9,29.87,South,191,3.0,8.0,31,0.00,,---,0.00,VWS V14.01,2013-09-07 19:24:00,
2013-09-07 14:29:00,103.6,67.1,29.87,SW,224,4.0,9.0,31,0.00,,---,0.00,VWS V14.01,2013-09-07 19:29:00,
2013-09-07 14:34:00,103.4,66.9,29.87,SW,224,2.0,8.0,31,0.00,,---,0.00,VWS V14.01,2013-09-07 19:34:00,
2013-09-07 14:39:00,104.0,65.5,29.87,SSW,210,1.0,8.0,29,0.00,,---,0.00,VWS V14.01,2013-09-07 19:39:00,
2013-09-07 14:44:00,104.2,63.6,29.86,SW,228,4.0,8.0,27,0.00,,---,0.00,VWS V14.01,2013-09-07 19:44:00,
2013-09-07 14:49:00,104.1,64.6,29.86,SW,226,4.0,6.0,28,0.00,,---,0.00,VWS V14.01,2013-09-07 19:49:00,
2013-09-07 14:54:00,104.2,64.7,29.86,SSW,212,3.0,6.0,28,0.00,,---,0.00,VWS V14.01,2013-09-07 19:54:00,
2013-09-07 14:59:00,104.2,64.7,29.86,WSW,238,2.0,8.0,28,0.00,,---,0.00,VWS V14.01,2013-09-07 19:59:00,
2013-09-07 15:04:00,104.2,63.6,29.86,WSW,248,1.0,7.0,27,0.00,,---,0.00,VWS V14.01,2013-09-07 20:04:00,
2013-09-07 15:09:00,104.5,63.9,29.85,WSW,241,4.0,9.0,27,0.00,,---,0.00,VWS V14.01,2013-09-07 20:09:00,
2013-09-07 15:14:00,104.3,63.7,29.85,SW,236,1.0,9.0,27,0.00,,---,0.00,VWS V14.01,2013-09-07 20:14:00,
2013-09-07 15:19:00,104.9,65.2,29.85,SSW,207,1.0,4.0,28,0.00,,---,0.00,VWS V14.01,2013-09-07 20:19:00,
2013-09-07 15:24:00,104.4,63.8,29.85,WSW,245,1.0,11.0,27,0.00,,---,0.00,VWS V14.01,2013-09-07 20:24:00,
2013-09-07 15:29:00,104.5,63.9,29.85,SSE,153,3.0,11.0,27,0.00,,---,0.00,VWS V14.01,2013-09-07 20:29:00,
2013-09-07 15:34:00,104.6,63.9,29.85,SW,232,2.0,6.0,27,0.00,,---,0.00,VWS V14.01,2013-09-07 20:34:00,
2013-09-07 15:39:00,105.1,63.3,29.85,SW,225,3.0,9.0,26,0.00,,---,0.00,VWS V14.01,2013-09-07 20:39:00,
2013-09-07 15:44:00,104.6,62.9,29.84,SSW,208,1.0,9.0,26,0.00,,---,0.00,VWS V14.01,2013-09-07 20:44:00,
2013-09-07 15:49:00,104.7,64.0,29.84,SW,215,2.0,7.0,27,0.00,,---,0.00,VWS V14.01,2013-09-07 20:49:00,
2013-09-07 15:54:00,105.0,64.3,29.84,SW,222,4.0,9.0,27,0.00,,---,0.00,VWS V14.01,2013-09-07 20:54:00,
2013-09-07 15:59:00,105.1,65.4,29.84,WSW,245,2.0,9.0,28,0.00,,---,0.00,VWS V14.01,2013-09-07 20:59:00,
2013-09-07 16:04:00,105.1,63.3,29.84,SSE,158,2.0,9.0,26,0.00,,---,0.00,VWS V14.01,2013-09-07 21:04:00,
2013-09-07 16:09:00,104.9,64.2,29.84,South,169,4.0,10.0,27,0.00,,---,0.00,VWS V14.01,2013-09-07 21:09:00,
2013-09-07 16:14:00,104.6,62.9,29.84,ESE,120,4.0,10.0,26,0.00,,---,0.00,VWS V14.01,2013-09-07 21:14:00,
2013-09-07 16:19:00,104.8,63.0,29.84,SE,129,5.0,8.0,26,0.00,,---,0.00,VWS V14.01,2013-09-07 21:19:00,
2013-09-07 16:24:00,104.5,62.8,29.83,South,176,1.0,10.0,26,0.00,,---,0.00,VWS V14.01,2013-09-07 21:24:00,
2013-09-07 16:29:00,104.5,63.9,29.83,South,190,2.0,10.0,27,0.00,,---,0.00,VWS V14.01,2013-09-07 21:29:00,
2013-09-07 16:34:00,104.5,63.9,29.83,South,186,6.0,8.0,27,0.00,,---,0.00,VWS V14.01,2013-09-07 21:34:00,
2013-09-07 16:39:00,104.6,65.0,29.83,South,187,5.0,8.0,28,0.00,,---,0.00,VWS V14.01,2013-09-07 21:39:00,
2013-09-07 16:44:00,104.4,63.8,29.83,SSW,204,7.0,9.0,27,0.00,,---,0.00,VWS V14.01,2013-09-07 21:44:00,
2013-09-07 16:49:00,104.1,63.5,29.83,SSW,204,5.0,9.0,27,0.00,,---,0.00,VWS V14.01,2013-09-07 21:49:00,
2013-09-07 16:54:00,103.9,64.4,29.83,West,274,4.0,9.0,28,0.00,,---,0.00,VWS V14.01,2013-09-07 21:54:00,
2013-09-07 16:59:00,104.1,64.6,29.83,SW,231,5.0,9.0,28,0.00,,---,0.00,VWS V14.01,2013-09-07 21:59:00,
2013-09-07 17:04:00,104.4,63.8,29.83,SW,235,8.0,8.0,27,0.00,,---,0.00,VWS V14.01,2013-09-07 22:04:00,
2013-09-07 17:09:00,103.9,63.3,29.83,WSW,248,4.0,9.0,27,0.00,,---,0.00,VWS V14.01,2013-09-07 22:09:00,
2013-09-07 17:14:00,103.7,64.2,29.82,SSE,148,6.0,9.0,28,0.00,,---,0.00,VWS V14.01,2013-09-07 22:14:00,
2013-09-07 17:19:00,103.6,64.1,29.82,SSE,159,5.0,11.0,28,0.00,,---,0.00,VWS V14.01,2013-09-07 22:19:00,
2013-09-07 17:24:00,103.4,65.0,29.82,SW,226,5.0,11.0,29,0.00,,---,0.00,VWS V14.01,2013-09-07 22:24:00,
2013-09-07 17:29:00,103.2,64.8,29.82,SSE,149,6.0,11.0,29,0.00,,---,0.00,VWS V14.01,2013-09-07 22:29:00,
2013-09-07 17:34:00,103.1,64.7,29.83,SW,214,6.0,8.0,29,0.00,,---,0.00,VWS V14.01,2013-09-07 22:34:00,
2013-09-07 17:38:00,103.5,65.1,29.83,SW,214,4.0,8.0,29,0.00,,---,0.00,VWS V14.01,2013-09-07 22:38:00,
2013-09-07 17:43:00,103.5,64.1,29.83,SSW,210,1.0,8.0,28,0.00,,---,0.00,VWS V14.01,2013-09-07 22:43:00,
2013-09-07 17:48:00,103.5,65.1,29.82,SE,143,4.0,4.0,29,0.00,,---,0.00,VWS V14.01,2013-09-07 22:48:00,
2013-09-07 17:53:00,103.1,64.7,29.83,SW,221,3.0,7.0,29,0.00,,---,0.00,VWS V14.01,2013-09-07 22:53:00,
2013-09-07 17:58:00,102.8,64.5,29.83,SE,143,4.0,10.0,29,0.00,,---,0.00,VWS V14.01,2013-09-07 22:58:00,
2013-09-07 18:03:00,102.7,63.4,29.83,SW,226,4.0,9.0,28,0.00,,---,0.00,VWS V14.01,2013-09-07 23:03:00,
2013-09-07 18:08:00,102.7,64.4,29.83,SSE,148,2.0,9.0,29,0.00,,---,0.00,VWS V14.01,2013-09-07 23:08:00,
2013-09-07 18:13:00,102.7,64.4,29.83,SSE,158,2.0,9.0,29,0.00,,---,0.00,VWS V14.01,2013-09-07 23:13:00,
2013-09-07 18:18:00,102.5,64.2,29.83,WSW,247,4.0,7.0,29,0.00,,---,0.00,VWS V14.01,2013-09-07 23:18:00,
2013-09-07 18:23:00,102.4,64.1,29.83,SSE,152,3.0,7.0,29,0.00,,---,0.00,VWS V14.01,2013-09-07 23:23:00,
2013-09-07 18:28:00,102.3,64.0,29.83,SW,226,1.0,7.0,29,0.00,,---,0.00,VWS V14.01,2013-09-07 23:28:00,
2013-09-07 18:33:00,102.1,64.8,29.83,SSE,168,2.0,6.0,30,0.00,,---,0.00,VWS V14.01,2013-09-07 23:33:00,
2013-09-07 18:38:00,101.8,64.6,29.83,SSW,207,3.0,6.0,30,0.00,,---,0.00,VWS V14.01,2013-09-07 23:38:00,
2013-09-07 18:43:00,101.6,64.4,29.83,South,181,1.0,6.0,30,0.00,,---,0.00,VWS V14.01,2013-09-07 23:43:00,
2013-09-07 18:48:00,101.3,64.1,29.83,South,174,3.0,7.0,30,0.00,,---,0.00,VWS V14.01,2013-09-07 23:48:00,
2013-09-07 18:53:00,101.0,63.9,29.83,SSW,207,2.0,7.0,30,0.00,,---,0.00,VWS V14.01,2013-09-07 23:53:00,
2013-09-07 18:58:00,100.7,63.6,29.83,WSW,242,4.0,7.0,30,0.00,,---,0.00,VWS V14.01,2013-09-07 23:58:00,
2013-09-07 19:03:00,100.4,63.4,29.83,South,188,2.0,7.0,30,0.00,,---,0.00,VWS V14.01,2013-09-08 00:03:00,
2013-09-07 19:08:00,100.1,64.1,29.83,SE,136,4.0,7.0,31,0.00,,---,0.00,VWS V14.01,2013-09-08 00:08:00,
2013-09-07 19:13:00,99.9,63.9,29.83,SSE,148,1.0,7.0,31,0.00,,---,0.00,VWS V14.01,2013-09-08 00:13:00,
2013-09-07 19:18:00,99.6,64.5,29.83,SW,231,3.0,4.0,32,0.00,,---,0.00,VWS V14.01,2013-09-08 00:18:00,
2013-09-07 19:23:00,99.1,64.1,29.83,South,169,2.0,4.0,32,0.00,,---,0.00,VWS V14.01,2013-09-08 00:23:00,
2013-09-07 19:28:00,98.7,64.6,29.83,South,172,1.0,4.0,33,0.00,,---,0.00,VWS V14.01,2013-09-08 00:28:00,
2013-09-07 19:33:00,98.2,64.2,29.83,South,180,1.0,3.0,33,0.00,,---,0.00,VWS V14.01,2013-09-08 00:33:00,
2013-09-07 19:38:00,97.7,64.6,29.83,SSE,150,4.0,5.0,34,0.00,,---,0.00,VWS V14.01,2013-09-08 00:38:00,
2013-09-07 19:43:00,97.2,64.2,29.83,SE,138,3.0,5.0,34,0.00,,---,0.00,VWS V14.01,2013-09-08 00:43:00,
2013-09-07 19:48:00,96.7,64.6,29.83,SSE,159,3.0,5.0,35,0.00,,---,0.00,VWS V14.01,2013-09-08 00:48:00,
2013-09-07 19:53:00,96.3,65.0,29.83,SSE,167,2.0,6.0,36,0.00,,---,0.00,VWS V14.01,2013-09-08 00:53:00,
2013-09-07 19:58:00,95.9,65.5,29.83,SSE,153,0.0,6.0,37,0.00,,---,0.00,VWS V14.01,2013-09-08 00:58:00,
2013-09-07 20:03:00,95.6,65.2,29.83,SSE,148,4.0,5.0,37,0.00,,---,0.00,VWS V14.01,2013-09-08 01:03:00,
2013-09-07 20:08:00,95.1,65.5,29.83,SE,145,2.0,5.0,38,0.00,,---,0.00,VWS V14.01,2013-09-08 01:08:00,
2013-09-07 20:13:00,94.7,65.2,29.83,SSW,200,2.0,6.0,38,0.00,,---,0.00,VWS V14.01,2013-09-08 01:13:00,
2013-09-07 20:18:00,94.3,64.8,29.83,SSE,163,2.0,6.0,38,0.00,,---,0.00,VWS V14.01,2013-09-08 01:18:00,
2013-09-07 20:23:00,93.9,65.2,29.83,South,172,4.0,6.0,39,0.00,,---,0.00,VWS V14.01,2013-09-08 01:23:00,
2013-09-07 20:28:00,93.6,64.9,29.83,SSE,155,2.0,6.0,39,0.00,,---,0.00,VWS V14.01,2013-09-08 01:28:00,
2013-09-07 20:33:00,93.3,64.7,29.83,SE,136,2.0,4.0,39,0.00,,---,0.00,VWS V14.01,2013-09-08 01:33:00,
2013-09-07 20:38:00,93.0,64.4,29.83,South,170,3.0,6.0,39,0.00,,---,0.00,VWS V14.01,2013-09-08 01:38:00,
2013-09-07 20:43:00,92.8,64.9,29.84,SSE,159,1.0,6.0,40,0.00,,---,0.00,VWS V14.01,2013-09-08 01:43:00,
2013-09-07 20:48:00,92.5,64.7,29.84,SSE,163,3.0,3.0,40,0.00,,---,0.00,VWS V14.01,2013-09-08 01:48:00,
2013-09-07 20:53:00,92.3,64.5,29.84,SW,214,3.0,6.0,40,0.00,,---,0.00,VWS V14.01,2013-09-08 01:53:00,
2013-09-07 20:58:00,92.1,64.3,29.84,SSW,200,2.0,6.0,40,0.00,,---,0.00,VWS V14.01,2013-09-08 01:58:00,
2013-09-07 21:03:00,91.8,64.1,29.84,SSE,148,2.0,4.0,40,0.00,,---,0.00,VWS V14.01,2013-09-08 02:03:00,
2013-09-07 21:08:00,91.6,63.9,29.84,SSE,158,0.0,5.0,40,0.00,,---,0.00,VWS V14.01,2013-09-08 02:08:00,
2013-09-07 21:13:00,91.5,63.8,29.84,SSE,165,1.0,8.0,40,0.00,,---,0.00,VWS V14.01,2013-09-08 02:13:00,
2013-09-07 21:18:00,91.4,63.7,29.84,South,173,3.0,5.0,40,0.00,,---,0.00,VWS V14.01,2013-09-08 02:18:00,
2013-09-07 21:23:00,91.1,64.1,29.84,SSW,197,1.0,5.0,41,0.00,,---,0.00,VWS V14.01,2013-09-08 02:23:00,
2013-09-07 21:28:00,90.8,63.9,29.84,SE,134,2.0,5.0,41,0.00,,---,0.00,VWS V14.01,2013-09-08 02:28:00,
2013-09-07 21:33:00,90.5,64.3,29.84,SE,143,3.0,4.0,42,0.00,,---,0.00,VWS V14.01,2013-09-08 02:33:00,
2013-09-07 21:38:00,90.2,64.0,29.84,SSE,155,2.0,5.0,42,0.00,,---,0.00,VWS V14.01,2013-09-08 02:38:00,
2013-09-07 21:43:00,89.9,63.8,29.85,SSE,158,1.0,5.0,42,0.00,,---,0.00,VWS V14.01,2013-09-08 02:43:00,
2013-09-07 21:48:00,89.7,64.2,29.85,SSW,212,3.0,7.0,43,0.00,,---,0.00,VWS V14.01,2013-09-08 02:48:00,
2013-09-07 21:53:00,89.5,64.1,29.85,South,191,2.0,7.0,43,0.00,,---,0.00,VWS V14.01,2013-09-08 02:53:00,
2013-09-07 21:58:00,89.3,64.6,29.85,SE,142,2.0,8.0,44,0.00,,---,0.00,VWS V14.01,2013-09-08 02:58:00,
2013-09-07 22:03:00,89.2,64.5,29.85,SSE,155,3.0,7.0,44,0.00,,---,0.00,VWS V14.01,2013-09-08 03:03:00,
2013-09-07 22:08:00,89.0,64.3,29.85,SE,131,2.0,7.0,44,0.00,,---,0.00,VWS V14.01,2013-09-08 03:08:00,
2013-09-07 22:13:00,88.8,64.7,29.85,SSE,148,2.0,7.0,45,0.00,,---,0.00,VWS V14.01,2013-09-08 03:13:00,
2013-09-07 22:18:00,88.5,64.5,29.85,SW,217,3.0,6.0,45,0.00,,---,0.00,VWS V14.01,2013-09-08 03:18:00,
2013-09-07 22:23:00,88.4,65.0,29.85,SE,146,6.0,8.0,46,0.00,,---,0.00,VWS V14.01,2013-09-08 03:23:00,
2013-09-07 22:28:00,88.4,65.6,29.85,SW,224,2.0,8.0,47,0.00,,---,0.00,VWS V14.01,2013-09-08 03:28:00,
2013-09-07 22:33:00,88.3,65.5,29.85,SE,130,4.0,6.0,47,0.00,,---,0.00,VWS V14.01,2013-09-08 03:33:00,
2013-09-07 22:38:00,88.1,65.3,29.85,SSE,158,5.0,9.0,47,0.00,,---,0.00,VWS V14.01,2013-09-08 03:38:00,
2013-09-07 22:43:00,88.0,65.9,29.85,SW,215,2.0,9.0,48,0.00,,---,0.00,VWS V14.01,2013-09-08 03:43:00,
2013-09-07 22:48:00,87.8,65.7,29.85,SSE,159,4.0,6.0,48,0.00,,---,0.00,VWS V14.01,2013-09-08 03:48:00,
2013-09-07 22:53:00,87.5,66.0,29.85,SSW,203,4.0,7.0,49,0.00,,---,0.00,VWS V14.01,2013-09-08 03:53:00,
2013-09-07 22:58:00,87.4,65.9,29.85,SE,127,5.0,8.0,49,0.00,,---,0.00,VWS V14.01,2013-09-08 03:58:00,
2013-09-07 23:01:00,87.3,65.8,29.85,SE,142,4.0,4.0,49,0.00,,---,0.00,VWS V14.01,2013-09-08 04:01:00,
2013-09-07 23:06:00,87.1,66.2,29.85,SE,143,3.0,6.0,50,0.00,,---,0.00,VWS V14.01,2013-09-08 04:06:00,
2013-09-07 23:11:00,86.9,66.0,29.85,SE,142,3.0,6.0,50,0.00,,---,0.00,VWS V14.01,2013-09-08 04:11:00,
2013-09-07 23:16:00,86.7,65.9,29.85,SE,135,3.0,4.0,50,0.00,,---,0.00,VWS V14.01,2013-09-08 04:16:00,
2013-09-07 23:21:00,86.5,66.2,29.85,South,172,2.0,6.0,51,0.00,,---,0.00,VWS V14.01,2013-09-08 04:21:00,
2013-09-07 23:26:00,86.3,66.1,29.85,South,183,1.0,6.0,51,0.00,,---,0.00,VWS V14.01,2013-09-08 04:26:00,
2013-09-07 23:31:00,86.1,66.4,29.85,SSW,203,3.0,6.0,52,0.00,,---,0.00,VWS V14.01,2013-09-08 04:31:00,
2013-09-07 23:36:00,85.9,66.2,29.85,SW,224,4.0,7.0,52,0.00,,---,0.00,VWS V14.01,2013-09-08 04:36:00,
2013-09-07 23:41:00,85.7,66.1,29.85,WSW,239,5.0,8.0,52,0.00,,---,0.00,VWS V14.01,2013-09-08 04:41:00,
2013-09-07 23:46:00,85.6,66.0,29.85,South,174,0.0,1.0,52,0.00,,---,0.00,VWS V14.01,2013-09-08 04:46:00,
2013-09-07 23:51:00,85.5,66.4,29.85,South,180,3.0,10.0,53,0.00,,---,0.00,VWS V14.01,2013-09-08 04:51:00,
2013-09-07 23:56:00,85.4,66.3,29.85,SW,223,4.0,10.0,53,0.00,,---,0.00,VWS V14.01,2013-09-08 04:56:00,